Torax TimeFrame

98 Gods Updated: 2020-01-26 14:55:02
NameTime LeftWindow Opens
In TimeFrame
Animated Captain 17d 20:122020-01-08 16:19:00
Old World Drake 3d 22:082020-01-22 14:23:00
Keeper of Nature 1d 10:592020-01-25 01:32:00
Kro Shuk, Doomslayer 1d 09:282020-01-25 03:03:00
Bolkor, the Holy Master 1d 03:012020-01-25 09:30:00
Sigil, Lich of Woe 1d 00:552020-01-25 11:36:00
Lord Suka 1d 00:202020-01-25 12:11:00
Viserion, the Necrodragon 1d 00:052020-01-25 12:26:00
Kretok, Descendant of Nature 1d 00:012020-01-25 12:30:00
Slashbrood, Devourer of the Blackness 0d 23:332020-01-25 12:58:00
Lady Chaos, Queen of the Abyss 0d 21:102020-01-25 15:21:00
King Ashnar, Lord of the Unliving 0d 20:342020-01-25 15:57:00
Wanhiroeaz the Devourer 0d 19:242020-01-25 17:07:00
Noxious Slug 0d 17:312020-01-25 19:00:00
Gnorb 0d 14:402020-01-25 21:51:00
Straya, the Underworld Ruler 0d 13:042020-01-25 23:27:00
Numerocure, The Black Messenger of Evil 0d 11:502020-01-26 00:41:00
Lord Xordam 0d 11:302020-01-26 01:01:00
Esquin, the Kinetic Master 0d 10:012020-01-26 02:30:00
Garland, The Lord Keeper 0d 07:572020-01-26 04:34:00
Sarcrina the Astral Priestess 0d 07:542020-01-26 04:37:00
Volgan the Living Ironbark 0d 07:152020-01-26 05:16:00
Ag Nabak the Abomination 0d 07:042020-01-26 05:27:00
Jazzmin, Maiden of Vitality 0d 06:292020-01-26 06:02:00
Karvaz, Lord of Alsayic 0d 04:292020-01-26 08:02:00
Jorun the Blazing Swordsman 0d 04:072020-01-26 08:24:00
Skarthul the Avenged 0d 03:032020-01-26 09:28:00
Tylos, The Lord Master 0d 02:292020-01-26 10:02:00
Nafir, God of Desolation 0d 02:082020-01-26 10:23:00
Murderface 0d 01:572020-01-26 10:34:00
Ebliss, Fallen Angel of Despair 0d 00:422020-01-26 11:49:00
Not In TimeFrame
Terrance, Rebel of Rallis 0d 03:172020-01-26 15:49:00
Gorganus of the Wood 0d 05:072020-01-26 17:39:00
Pinosis 0d 06:402020-01-26 19:12:00
Synge, The Red Dragon 0d 06:442020-01-26 19:16:00
Q-SEC Commander 0d 06:572020-01-26 19:29:00
Melt Bane, The Forbidden Demon Dragon 0d 07:582020-01-26 20:30:00
Ancient Magus Tarkin 0d 08:252020-01-26 20:57:00
Amalgamated Apparition 0d 08:582020-01-26 21:30:00
Ganja the Stone Golem 0d 10:282020-01-26 23:00:00
Windstrike The Vile 0d 10:442020-01-26 23:16:00
Lord Varan 0d 12:022020-01-27 00:34:00
Rotborn, Eater of the Dead 0d 13:422020-01-27 02:14:00
Lord Narada 0d 15:122020-01-27 03:44:00
Lord Sibannac 0d 15:122020-01-27 03:44:00
Zikkir the Dark Archer 0d 15:392020-01-27 04:11:00
Great Lord Ganeshan 0d 16:232020-01-27 04:55:00
Detox 0d 17:352020-01-27 06:07:00
Bloodchill the Grizzly 0d 17:422020-01-27 06:14:00
Nessam 0d 20:322020-01-27 09:04:00
Mistress of the Sword 0d 21:222020-01-27 09:54:00
Tsort 0d 21:222020-01-27 09:54:00
Crane 0d 21:302020-01-27 10:02:00
Xynak, the Arcane Master 1d 00:152020-01-27 12:47:00
Lady Ariella 1d 00:312020-01-27 13:03:00
Anvilfist 1d 01:142020-01-27 13:46:00
Smoot the Yeti 1d 01:522020-01-27 14:24:00
Anguish 1d 02:572020-01-27 15:29:00
Shadow 1d 04:082020-01-27 16:40:00
Grivvek, Protector of the Brood 1d 08:262020-01-27 20:58:00
Threk, King of Lords 1d 09:332020-01-27 22:05:00
Rancid, Lord of Thugs 1d 11:112020-01-27 23:43:00
Brutalitar, Lord of the Underworld 1d 11:122020-01-27 23:44:00
Varsanor, Master of Darkness 1d 11:242020-01-27 23:56:00
Skybrine The Inescapable 1d 12:402020-01-28 01:12:00
Traxodon the Plaguebringer 1d 14:262020-01-28 02:58:00
Quiver, The Renegade 1d 15:122020-01-28 03:44:00
Zertan, The Collector 1d 22:242020-01-28 10:56:00
Dreg nor, Keeper of the Infernal Essence 2d 00:482020-01-28 13:20:00
Lacuste of the Swarm 2d 01:282020-01-28 14:00:00
Sylvanna TorLai 2d 01:322020-01-28 14:04:00
Nayark the Mummified Sorcerer 2d 02:062020-01-28 14:38:00
The Emerald Assassin 2d 05:332020-01-28 18:05:00
Samatha Dark-Soul 2d 05:362020-01-28 18:08:00
Crantos, Defender of Ultimation 2d 05:502020-01-28 18:22:00
Nar Zhul, Slayer of All 2d 06:572020-01-28 19:29:00
Archdevil Yirkon 2d 11:382020-01-29 00:10:00
Hackerphage, Protector of the Gateway 2d 11:382020-01-29 00:10:00
Akkel the Enflamed Warrior 2d 18:112020-01-29 06:43:00
Crolvak, the Fire Master 3d 02:112020-01-29 14:43:00
Howldroid, Tormentor of the Pit 3d 13:242020-01-30 01:56:00
Ormsul the Putrid 3d 21:542020-01-30 10:26:00
Balerion, Dragon of Dread 4d 01:032020-01-30 13:35:00
Felroc, Overseer of Hellfire 4d 03:112020-01-30 15:43:00
Raiyar, the Shadow Master 4d 09:552020-01-30 22:27:00
Dlanod, the Crazed Chancellor 4d 11:192020-01-30 23:51:00
Emperor Neudeus, Controller of the Universe 4d 13:292020-01-31 02:01:00
Dexor, Victor of Veldara 4d 15:472020-01-31 04:19:00
Gregov, Knight of the Woods 4d 18:392020-01-31 07:11:00
Out of TimeFrame
Shaik, Servant of Arkron 58d 01:122019-11-29 11:19:00
Rook, Hand of Arkron 56d 00:062019-12-01 12:25:00
Beast of Cards 20d 21:292020-01-05 15:02:00
Jade Dragonite 17d 19:252020-01-08 17:06:00
Murfax, Beast of the Caves 2d 18:552020-01-23 17:36:00
Vitkros, Hydra of the Deep 2d 04:422020-01-24 07:49:00
Freezebreed, The Frozen Manipulator 2d 04:042020-01-24 08:27:00
Baron Mu, Dark Rider of the Undead 2d 03:592020-01-24 08:32:00
Hyrak, Bringer of Nightmares 1d 18:032020-01-24 18:28:00